Montpelier, VT

7:59 PM EDT on June 25, 2017 (GMT -0400)
Knapp State

Weather History for KMPV - February, 2014

Change the Weather History Date:

Friday, February 7, 2014

  Actual Average Record
Temperature  
Mean Temperature 8 °F 18 °F  
Max Temperature 20 °F 29 °F 53 °F (2005)
Min Temperature -4 °F 8 °F -28 °F (1993)
Degree Days  
Heating Degree Days 57 47  
Month to date heating degree days 312 331  
Since 1 July heating degree days 5119 4976  
Cooling Degree Days 0 0  
Month to date cooling degree days 0  
Year to date cooling degree days 0  
Moisture  
Dew Point 1 °F    
Average Humidity 76    
Maximum Humidity 95    
Minimum Humidity 56    
Precipitation  
Precipitation T in 0.07 in 1.58 in (1951)
Month to date precipitation 0.52 0.54  
Year to date precipitation 2.35 2.99  
Sea Level Pressure  
Sea Level Pressure 30.17 in    
Wind  
Wind Speed 5 mph (SW)    
Max Wind Speed 14 mph    
Max Gust Speed 20 mph    
Visibility 9 miles    
Events      
T = Trace of Precipitation, MM = Missing Value Source: NWS Daily Summary

Daily Weather History Graph

Daily Weather History Graph

Search for Another Location

Airport or City:

Trip Planner

Search our weather history database for the weather conditions in past years. The results will help you decide how hot, cold, wet, or windy it might be!

Date:

Astronomy

Feb. 07, 2014 Rise Set
Actual Time 7:00 AM EST 5:08 PM EST
Civil Twilight 6:30 AM EST 5:38 PM EST
Nautical Twilight 5:56 AM EST 6:13 PM EST
Astronomical Twilight 5:22 AM EST 6:46 PM EST
Moon 11:15 AM EST (2/7) 1:15 AM EST (2/7)
Length of Visible Light 11h 08m
Length of Day
10h 07m
First Quarter, 59% of the Moon is Illuminated
Feb 7
First Quarter
Feb 14
Full
Feb 22
Last Quarter
Mar 1
New
Mar 8
First Quarter

Hourly Weather History & Observations

Time (EST) Temp. Windchill Dew Point Humidity Pressure Visibility Wind Dir Wind Speed Gust Speed Precip Events Conditions
12:51 AM 1.0 °F - -0.9 °F 91% 30.20 in 9.0 mi Calm Calm - N/A   Mostly Cloudy
1:51 AM 10.0 °F 0.4 °F 3.9 °F 76% 30.19 in 10.0 mi SW 5.8 mph - N/A   Overcast
2:51 AM 5.0 °F - 1.0 °F 84% 30.18 in 10.0 mi Calm Calm - N/A   Clear
3:20 AM 1.9 °F - -2.0 °F 83% 30.09 in 9.0 mi Calm Calm - N/A   Mostly Cloudy
3:39 AM 6.1 °F - 1.0 °F 80% 30.09 in 10.0 mi Calm Calm - N/A   Scattered Clouds
3:51 AM -0.0 °F - -2.9 °F 88% 30.19 in 8.0 mi Calm Calm - N/A   Scattered Clouds
4:02 AM 1.0 °F - -2.0 °F 87% 30.09 in 7.0 mi Calm Calm - N/A   Mostly Cloudy
4:31 AM -0.9 °F - -2.9 °F 91% 30.10 in 7.0 mi Calm Calm - N/A   Overcast
4:51 AM -0.9 °F - -4.0 °F 87% 30.19 in 7.0 mi Calm Calm - N/A   Overcast
5:13 AM -0.9 °F - -4.0 °F 87% 30.09 in 8.0 mi Calm Calm - N/A   Overcast
5:51 AM -2.9 °F -11.2 °F -5.1 °F 90% 30.20 in 10.0 mi SSW 3.5 mph - N/A   Mostly Cloudy
6:24 AM -2.0 °F -10.1 °F -4.0 °F 91% 30.10 in 10.0 mi South 3.5 mph - N/A   Mostly Cloudy
6:51 AM -0.9 °F - -4.0 °F 87% 30.20 in 10.0 mi Calm Calm - N/A   Overcast
7:34 AM -2.0 °F -12.2 °F -4.0 °F 91% 30.12 in 10.0 mi South 4.6 mph - N/A   Overcast
7:51 AM -0.9 °F -8.9 °F -4.0 °F 87% 30.22 in 9.0 mi Variable 3.5 mph - N/A   Overcast
8:51 AM -0.9 °F - -2.9 °F 91% 30.22 in 7.0 mi Calm Calm - N/A   Mostly Cloudy
9:51 AM 5.0 °F - 1.0 °F 84% 30.22 in 9.0 mi Calm Calm - N/A   Overcast
10:51 AM 17.1 °F 6.6 °F 6.1 °F 62% 30.21 in 10.0 mi WSW 8.1 mph - N/A   Mostly Cloudy
11:51 AM 17.1 °F 7.6 °F 6.1 °F 62% 30.20 in 10.0 mi Variable 6.9 mph - 0.00 in   Overcast
12:51 PM 18.0 °F 8.7 °F 6.1 °F 60% 30.19 in 10.0 mi WSW 6.9 mph - N/A   Overcast
1:51 PM 19.0 °F 10.0 °F 6.1 °F 57% 30.16 in 10.0 mi SW 6.9 mph - N/A   Overcast
2:51 PM 19.9 °F 13.4 °F 7.0 °F 57% 30.15 in 10.0 mi Variable 4.6 mph - N/A   Mostly Cloudy
3:51 PM 19.0 °F 10.0 °F 7.0 °F 59% 30.16 in 10.0 mi Variable 6.9 mph - 0.00 in   Clear
4:51 PM 18.0 °F 11.1 °F 6.1 °F 60% 30.16 in 10.0 mi WSW 4.6 mph - N/A   Clear
5:51 PM 17.1 °F 7.6 °F 6.1 °F 62% 30.19 in 10.0 mi SW 6.9 mph - N/A   Partly Cloudy
6:51 PM 18.0 °F 7.7 °F 6.1 °F 60% 30.19 in 10.0 mi SW 8.1 mph 18.4 mph N/A   Overcast
7:51 PM 18.0 °F 8.7 °F 7.0 °F 62% 30.19 in 10.0 mi WSW 6.9 mph - N/A   Overcast
8:51 PM 18.0 °F 6.9 °F 6.1 °F 60% 30.20 in 10.0 mi WSW 9.2 mph - N/A   Overcast
9:51 PM 16.0 °F 5.3 °F 3.9 °F 59% 30.19 in 10.0 mi West 8.1 mph - N/A   Mostly Cloudy
10:51 PM 14.0 °F 2.0 °F 1.0 °F 56% 30.17 in 10.0 mi West 9.2 mph - N/A   Clear
11:51 PM 14.0 °F 2.0 °F -0.9 °F 52% 30.18 in 10.0 mi West 9.2 mph - N/A   Clear